Regional Weather Roundup
Issued by NWS Northern Indiana

Home | Current Version | Previous Version | Text Only | Print | Product List | Glossary Off
Versions: 1 2 3 4 5 6 7 8 9 10 11 12 13 14 15 16 17 18 19 20 21 22 23 24 25 26 27 28 29 30 31 32 33 34 35 36 37 38 39 40 41 42 43 44 45 46 47 48 49 50

731
ASUS43 KIWX 180600
RWRIWX

KIWX WEATHER ROUNDUP
NATIONAL WEATHER SERVICE NORTHERN INDIANA
100 AM EST WED JAN 18 2017

NOTE: "FAIR" INDICATES FEW OR NO CLOUDS BELOW 12,000 FEET WITH NO
SIGNIFICANT WEATHER AND/OR OBSTRUCTIONS TO VISIBILITY.

* THESE STATIONS ARE NOT UNDER NWS QUALITY CONTROL. THEY ALSO MAY NOT
  REPORT WEATHER SUCH AS PRECIPITATION OR FOG.

INZ001>027-180700-
NORTHERN INDIANA

CITY           SKY/WX    TMP DP  RH WIND       PRES   REMARKS
SOUTH BEND     CLOUDY    34  34 100 W12G21    29.99S FOG     WCI  25
6HR MIN TEMP:  34; 6HR MAX TEMP:  37; 6HR PCP:  0.01;

GOSHEN         CLOUDY    35  32  88 W15       29.98S FOG     WCI  25
6HR MIN TEMP:  35; 6HR MAX TEMP:  38;

FORT WAYNE     DRIZZLE   36  33  89 W17G23    30.00S
6HR MIN TEMP:  36; 6HR MAX TEMP:  42; 6HR PCP:  0.01;

PERU/GRISSOM   CLOUDY    35  35 100 W15       30.01S WCI  26
6HR MIN TEMP:  35; 6HR MAX TEMP:  40; 6HR PCP:  0.01;


$$
INZ028>050-180700-
CENTRAL INDIANA

CITY           SKY/WX    TMP DP  RH WIND       PRES   REMARKS
LAFAYETTE      CLOUDY    35  35 100 W9        30.06S WCI  28
6HR MIN TEMP:  35; 6HR MAX TEMP:  38; 6HR PCP: TRACE;

KOKOMO*        CLOUDY    35  34  96 W13       30.04S WCI  26
6HR MIN TEMP:  35; 6HR MAX TEMP:  42; 6HR PCP:  0.02;

MUNCIE*        CLOUDY    38  34  85 W14       30.03S
6HR MIN TEMP:  38; 6HR MAX TEMP:  44;

INDIANAPOLIS   DRIZZLE   37  34  89 W14       30.07S
6HR MIN TEMP:  37; 6HR MAX TEMP:  43; 6HR PCP: TRACE;


$$
MIZ043>046-050>051-056>058-064>065-071>073-077>080-180700-
SOUTHWEST LOWER MICHIGAN

CITY           SKY/WX    TMP DP  RH WIND       PRES   REMARKS
BATTLE CREEK   LGT RAIN  36  35  96 W15       29.94S
6HR MIN TEMP:  36; 6HR MAX TEMP:  38; 6HR PCP: TRACE;

BENTON HARBOR  CLOUDY    37  34  89 W13       29.98R
6HR MIN TEMP:  36; 6HR MAX TEMP:  38; 6HR PCP:  0.03;

COLDWATER*     CLOUDY    35  35 100 W10G16    29.95S WCI  28
6HR MIN TEMP:  35; 6HR MAX TEMP:  38;

HILLSDALE*     CLOUDY    34  32  93 W14       29.92S WCI  24
HOLLAND        CLOUDY    36  34  92 W8        29.95R
6HR MIN TEMP:  36; 6HR MAX TEMP:  37; 6HR PCP: TRACE;

GRAND RAPIDS   CLOUDY    36  34  92 W9        29.92S FOG
6HR MIN TEMP:  36; 6HR MAX TEMP:  37; 6HR PCP:  0.01;

KALAMAZOO      LGT RAIN  36  33  89 W10       29.95S FOG
6HR MIN TEMP:  36; 6HR MAX TEMP:  38; 6HR PCP: TRACE;

STURGIS*       CLOUDY    35  34  96 W8        29.96R WCI  28
6HR MIN TEMP:  34; 6HR MAX TEMP:  38;

THREE RIVERS*  CLOUDY    35  34  96 W9        29.96S FOG     WCI  28
6HR MIN TEMP:  35; 6HR MAX TEMP:  38;


$$
OHZ001>008-015>018-024>025-180700-
NORTHWEST OHIO

CITY           SKY/WX    TMP DP  RH WIND       PRES   REMARKS
DEFIANCE       CLOUDY    38  34  85 W9        29.98R FOG
6HR MIN TEMP:  38; 6HR MAX TEMP:  44;

FINDLAY        CLOUDY    41  36  82 W20       29.95S
6HR MIN TEMP:  41; 6HR MAX TEMP:  46; 6HR PCP: TRACE;

TOLEDO EXPRESS CLOUDY    38  36  92 W21       29.95R
6HR MIN TEMP:  38; 6HR MAX TEMP:  42;

TOLEDO METCALF CLOUDY    40  38  93 W13       29.95S
6HR MIN TEMP:  40; 6HR MAX TEMP:  44;

LIMA           CLOUDY    39  37  92 W18       29.97F
6HR MIN TEMP:  39; 6HR MAX TEMP:  44; 6HR PCP: TRACE;


$$
AND FOR LAKE MICHIGAN COASTAL AND OPEN LAKE BUOY OBSERVATIONS

STATION/POSITION TEMP    WIND        PRES    VSBY  WAVE
                 AIR SEA DIR/SP/G                  HT/PER
                 (F)     (DEG/KT/KT) (MB)    (MI)  (FT/S)
CALUMET HARBOR    35     250/  5/ 12 1015.7R
BURNS HARBOR      35     260/ 14/ 16 1016.9R

$$
&&




USA.gov is the U.S. government's official web portal to all federal, state and local government web resources and services.